| time (UTC) | temp C | wind direction | speed KPH | gust KPH | rain 1hr cm | rain 24hr cm | rain mn cm | humidity % | barometer mb |
| 20260507150006 | 23 | 202 | 3.2 | 12.9 | 0.00 | 0.00 | 0.00 | 47 | 1002.7 |
| 20260507140006 | 23 | 197 | 4.8 | 11.3 | 0.00 | 0.00 | 0.00 | 50 | 1003.1 |
| 20260507130005 | 22 | 216 | 4.8 | 11.3 | 0.00 | 0.00 | 0.00 | 53 | 1003.6 |
| 20260507120006 | 21 | 193 | 4.8 | 11.3 | 0.00 | 0.00 | 0.00 | 56 | 1004.1 |
| 20260507110005 | 21 | 187 | 4.8 | 9.7 | 0.00 | 0.00 | 0.00 | 58 | 1004.2 |
| 20260507100005 | 19 | 176 | 6.4 | 17.7 | 0.00 | 0.00 | 0.00 | 69 | 1004.3 |
| 20260507090006 | 18 | 215 | 4.8 | 11.3 | 0.00 | 0.00 | 0.00 | 72 | 1004.3 |
| 20260507080005 | 17 | 173 | 3.2 | 6.4 | 0.00 | 0.00 | 0.00 | 77 | 1004.0 |
| 20260507070010 | 15 | 223 | 1.6 | 4.8 | 0.00 | 0.00 | 0.00 | 82 | 1003.8 |
| 20260507060006 | 13 | 208 | 1.6 | 4.8 | 0.00 | 0.00 | 0.00 | 88 | 1003.2 |
| 20260507050006 | 15 | 161 | 4.8 | 11.3 | 0.00 | 0.00 | 0.00 | 85 | 1002.1 |
| 20260507040005 | 16 | 185 | 0.0 | 1.6 | 0.00 | 0.00 | 0.00 | 81 | 1002.4 |
| 20260507030005 | 15 | 0.0 | 0.0 | 0.00 | 0.00 | 0.00 | 77 | 1002.5 | |
| 20260507020006 | 15 | 106 | 1.6 | 4.8 | 0.00 | 0.00 | 0.00 | 83 | 1002.5 |
| 20260507010005 | 15 | 144 | 1.6 | 4.8 | 0.00 | 0.00 | 0.00 | 81 | 1002.9 |
| 20260507000005 | 15 | 158 | 3.2 | 6.4 | 0.00 | 0.00 | 0.00 | 80 | 1003.0 |
| 20260506230005 | 16 | 130 | 0.0 | 3.2 | 0.00 | 0.00 | 0.00 | 82 | 1003.4 |
| 20260506220005 | 16 | 213 | 0.0 | 3.2 | 0.00 | 0.00 | 0.00 | 78 | 1003.2 |
| 20260506210006 | 17 | 121 | 0.0 | 4.8 | 0.00 | 0.00 | 0.00 | 73 | 1002.7 |
| 20260506200005 | 18 | 225 | 1.6 | 4.8 | 0.00 | 0.00 | 0.00 | 56 | 1001.9 |
| 20260506190006 | 20 | 258 | 3.2 | 6.4 | 0.00 | 0.00 | 0.00 | 54 | 1001.3 |
| 20260506180006 | 22 | 260 | 3.2 | 9.7 | 0.00 | 0.00 | 0.00 | 49 | 1001.1 |
| 20260506170005 | 22 | 266 | 3.2 | 11.3 | 0.00 | 0.00 | 0.00 | 45 | 1001.5 |
| 20260506160006 | 22 | 251 | 4.8 | 16.1 | 0.00 | 0.00 | 0.00 | 47 | 1001.9 |